Flag for U.S.A. Weather past 2 weeks in St. George, Utah, U.S.A.

Now
59 °F

Clear.


Feels Like: 58 °F
Forecast: 58 / 77 °F
Wind: 7 mph from Southeast

Location: Saint George


UV Index: 5 (Moderate)

Visibility: 10 mi


Pressure: 29.99 "Hg

Humidity: 45%

Dew point: 37 °F

Location of St. GeorgeLocation

Historic Weather in St. George

°F

St. George temperature yesterday

Maximum temperature yesterday: 81 °F (at 2:55 PM)
Minimum temperature yesterday: 57 °F (at 6:15 AM)
Average temperature yesterday: 70 °F

Past Weeks' High & Low Weather Summary

 TemperatureHumidityPressure
High86 °F (Apr 10, 4:15 PM)61% (Apr 6, 7:15 AM)30.30 "Hg (Apr 6, 7:15 AM)
Low39 °F (Apr 6, 7:15 AM)10% (Apr 9, 5:15 PM)29.64 "Hg (Apr 12, 6:15 PM)
Average64 °F21%29.98 "Hg
* Reported Apr 4 5:15 AM — Apr 19 5:55 AM, St. George, Weather by CustomWeather, © 2014

Note: Actual official high and low records may vary slightly from our data, if they occured in-between our weather recording intervals... More about our weather records

Advertising

Historic Weather Conditions — Data for Previous 24 hours

 ConditionsComfort  
Time TempWeatherWind HumidityBarometerVisibility
5:55 AM
Apr 19
61 °FClear.10 mph42%29.98 "Hg10 mi
5:35 AM61 °FClear.12 mph42%29.98 "Hg10 mi
5:15 AM61 °FClear.13 mph42%29.98 "Hg10 mi
4:55 AM61 °FClear.14 mph39%29.97 "Hg10 mi
4:35 AM61 °FClear.13 mph36%29.97 "Hg10 mi
4:15 AM63 °FClear.13 mph34%29.96 "Hg10 mi
3:55 AM63 °FClear.10 mph34%29.96 "Hg10 mi
3:35 AM63 °FClear.9 mph30%29.95 "Hg10 mi
3:15 AM63 °FClear.8 mph30%29.95 "Hg10 mi
2:55 AM64 °FClear.8 mph28%29.95 "Hg10 mi
2:35 AM64 °FClear.10 mph28%29.95 "Hg10 mi
2:15 AM64 °FClear.7 mph28%29.95 "Hg10 mi
1:55 AM64 °FClear.12 mph28%29.94 "Hg10 mi
1:35 AM64 °FClear.10 mph28%29.95 "Hg10 mi
1:15 AM66 °FClear.12 mph26%29.94 "Hg10 mi
12:55 AM66 °FClear.12 mph26%29.94 "Hg10 mi
12:35 AM66 °FPassing clouds.7 mph26%29.94 "Hg10 mi
12:15 AM66 °FPassing clouds.6 mph26%29.93 "Hg10 mi
11:55 PM
Apr 18
68 °FPassing clouds.No wind24%29.93 "Hg10 mi
11:35 PM68 °FOvercast.3 mph24%29.93 "Hg10 mi
11:15 PM66 °FPassing clouds.5 mph26%29.93 "Hg10 mi
10:55 PM68 °FPassing clouds.3 mph24%29.93 "Hg10 mi
10:35 PM70 °FPassing clouds.6 mph23%29.93 "Hg10 mi
10:15 PM70 °FPassing clouds.7 mph23%29.92 "Hg10 mi
9:55 PM72 °FPassing clouds.5 mph22%29.92 "Hg10 mi
9:35 PM72 °FPassing clouds.8 mph22%29.91 "Hg10 mi
9:15 PM72 °FPassing clouds.12 mph22%29.90 "Hg10 mi
8:55 PM73 °FOvercast.8 mph20%29.90 "Hg10 mi
8:35 PM73 °FOvercast.5 mph19%29.89 "Hg10 mi
8:15 PM73 °FOvercast.7 mph19%29.88 "Hg10 mi
7:55 PM73 °FPartly sunny.13 mph19%29.87 "Hg10 mi
7:35 PM75 °FPartly sunny.15 mph18%29.87 "Hg10 mi
7:15 PM77 °FPartly sunny.9 mph15%29.86 "Hg10 mi
6:55 PM77 °FPartly sunny.8 mph15%29.86 "Hg10 mi
6:35 PM77 °FPartly sunny.12 mph15%29.86 "Hg10 mi
6:15 PM79 °FScattered clouds.7 mph15%29.85 "Hg10 mi
5:55 PM79 °FSunny.10 mph13%29.85 "Hg10 mi
5:35 PM79 °FSunny.9 mph13%29.85 "Hg10 mi
5:15 PM81 °FSunny.12 mph13%29.85 "Hg10 mi
4:55 PM81 °FSunny.9 mph13%29.86 "Hg10 mi
4:35 PM79 °FSunny.12 mph13%29.86 "Hg10 mi
4:15 PM79 °FSunny.9 mph15%29.87 "Hg10 mi
3:55 PM81 °FPassing clouds.15 mph14%29.87 "Hg10 mi
3:35 PM81 °FScattered clouds.16 mph14%29.88 "Hg10 mi
3:15 PM81 °FSunny.23 mph14%29.87 "Hg10 mi
2:55 PM81 °FSunny.15 mph14%29.88 "Hg10 mi
2:35 PM79 °FSunny.3 mph15%29.89 "Hg10 mi
2:15 PM79 °FSunny.No wind15%29.90 "Hg10 mi
1:55 PM79 °FSunny.6 mph15%29.90 "Hg10 mi
1:35 PM75 °FSunny.7 mph15%29.90 "Hg10 mi
1:15 PM75 °FSunny.3 mph16%29.90 "Hg10 mi
12:55 PM75 °FSunny.8 mph16%29.91 "Hg10 mi
12:35 PM75 °FSunny.9 mph16%29.92 "Hg10 mi
12:15 PM75 °FSunny.6 mph16%29.93 "Hg10 mi
11:55 AM73 °FSunny.No wind16%29.93 "Hg10 mi
11:35 AM72 °FSunny.No wind17%29.94 "Hg10 mi
11:15 AM72 °FSunny.3 mph17%29.94 "Hg10 mi
10:55 AM70 °FSunny.3 mph17%29.94 "Hg10 mi
10:35 AM66 °FSunny.5 mph21%29.94 "Hg10 mi
10:15 AM66 °FSunny.5 mph21%29.93 "Hg10 mi
9:55 AM64 °FSunny.3 mph22%29.93 "Hg10 mi
9:35 AM64 °FSunny.No wind22%29.94 "Hg10 mi
9:15 AM63 °FSunny.5 mph24%29.94 "Hg10 mi
8:55 AM63 °FSunny.No wind20%29.93 "Hg10 mi
8:35 AM61 °FSunny.No wind22%29.93 "Hg10 mi
8:15 AM61 °FSunny.No wind22%29.92 "Hg10 mi
7:55 AM61 °FClear.3 mph22%29.92 "Hg10 mi
7:35 AM59 °FClear.3 mph21%29.92 "Hg10 mi
Weather by CustomWeather, © 2014

See weather overview